[[{"header":{"parameterUnit":"m.s-1","parameterCategory":1,"la1":30.2991,"la2":30.254,"lo1":-89.0895,"lo2":-89.0444,"dy":0.0017,"dx":0.0017,"nx":28,"ny":28,"refTime":"2025-12-04T03:00:00:Z","depth":0,"parameterNumber":2,"parameterNumberName":"U-component_of_WINDS"},"data":[0,0,0,0,0,0,0,0,0,0,0,0,0,0,0,0,0,0,0,0,0,0,0,0,0,0,0,0,0,0,0,0,0,0,0,0,0,0,0,0,0,0,0,0,0,0,0,0,0,0,0,0,0,0,0,0,0,0,-3.0836,-3.0837,0,-3.0907,-3.0908,-3.0909,-3.0827,-3.0824,-3.082,-3.0818,-3.0892,-3.0897,-3.0902,0,0,0,0,0,0,0,0,0,0,0,0,0,-3.063,-3.0634,-3.0836,-3.0837,-3.0838,-3.0907,-3.0908,-3.0909,-3.0827,-3.0823,-3.082,-3.0816,-3.0891,-3.0896,-3.0902,0,0,0,0,0,0,0,0,0,0,0,0,0,-3.0712,-3.0635,-3.0836,-3.0805,-3.0803,-3.0907,-3.0908,-3.0909,-3.0828,-3.0823,-3.0819,-3.0814,-3.0889,-3.0896,-3.0903,-3.104,0,0,-3.0925,-3.0928,0,0,0,0,0,0,0,0,-3.0708,-3.072,-3.0809,-3.0807,-3.0805,-3.0853,-3.0862,-3.0953,-3.0829,-3.0819,-3.0817,-3.0812,-3.0883,-3.089,-3.0914,-3.1044,-3.1047,-3.0926,-3.093,-3.0933,-3.0935,0,0,0,0,0,0,0,-3.0702,-3.0716,-3.0864,-3.081,-3.0808,-3.0788,-3.0795,-3.0879,-3.0876,-3.0819,-3.0813,-3.0823,-3.0881,-3.0907,-3.0915,-3.1048,-3.0926,-3.0932,-3.0937,-3.0939,-3.1293,-3.1298,0,0,0,0,0,0,-3.07,-3.0712,-3.0862,-3.0866,-3.0744,-3.0796,-3.0803,-3.0843,-3.0875,-3.0875,-3.0827,-3.0819,-3.0897,-3.0907,-3.0918,-3.108,-3.0933,-3.094,-3.0944,-3.1288,-3.1295,-3.13,0,0,0,0,0,0,-3.0695,-3.0714,-3.0859,-3.0788,-3.0804,-3.0804,-3.0849,-3.0846,-3.0872,-3.088,-3.088,-3.0854,-3.0894,-3.0907,-3.101,-3.1081,-3.0943,-3.095,-3.1282,-3.129,-3.1297,-3.1406,0,0,0,0,0,0,-3.069,-3.0713,-3.0765,-3.0789,-3.0809,-3.0951,-3.0854,-3.0851,-3.0885,-3.0875,-3.0906,-3.0906,-3.0891,-3.1,-3.1017,-3.1089,-3.0956,-3.1276,-3.1286,-3.1295,-3.1397,-3.1417,-3.1434,0,0,0,0,0,-3.0683,-3.0793,-3.0768,-3.0787,-3.0874,-3.0955,-3.0966,-3.0946,-3.0891,-3.0943,-3.0948,-3.0905,-3.1071,-3.1011,-3.103,-3.1105,-3.1272,-3.1283,-3.1294,-3.1388,-3.1413,-3.1434,0,0,0,0,0,0,-3.0778,-3.0796,-3.0768,-3.089,-3.0921,-3.0941,-3.1006,-3.0973,-3.1021,-3.101,-3.0983,-3.0991,-3.11,-3.1113,-3.1046,-3.1239,-3.1162,-3.1178,-3.1227,-3.1251,-3.1269,-3.1264,-3.0962,0,0,0,0,0,-3.0813,-3.0877,-3.089,-3.0996,-3.1013,-3.1007,-3.1042,-3.1023,-3.1055,-3.1068,-3.1081,-3.1114,-3.1173,-3.1212,-3.1267,-3.1398,-3.1403,-3.1459,-3.1478,-3.1493,-3.1507,-3.1576,-3.1601,-3.1337,-3.1337,-3.1337,0,0,-3.0887,-3.0905,-3.0947,-3.1015,-3.1038,-3.1104,-3.1019,-3.1094,-3.1143,-3.108,-3.1177,-3.1188,-3.1222,-3.134,-3.1392,-3.1354,-3.1581,-3.1507,-3.152,-3.1525,-3.159,-3.1615,-3.1638,-3.1345,-3.1343,-3.1342,0,0,-3.1055,-3.1075,-3.1165,-3.1189,-3.1223,-3.1218,-3.124,-3.1264,-3.1269,-3.1366,-3.132,-3.1378,-3.1481,-3.1507,-3.1534,-3.1711,-3.1673,-3.173,-3.1828,-3.1896,-3.1917,-3.1935,-3.1998,-3.2021,-3.1743,-3.1744,-3.1744,0,-3.1142,-3.124,-3.1216,-3.1293,-3.1325,-3.127,-3.1361,-3.1385,-3.1436,-3.1459,-3.1415,-3.1542,-3.1562,-3.1684,-3.1727,-3.1751,-3.1775,-3.1726,-3.1916,-3.1934,-3.195,-3.201,-3.2034,-3.175,-3.175,-3.1749,-3.1748,0,-3.1346,-3.1415,-3.1483,-3.1533,-3.1572,-3.1656,-3.1644,-3.1687,-3.1665,-3.1665,-3.1765,-3.1786,-3.1844,-3.1871,-3.1851,-3.1991,-3.1966,-3.192,-3.1842,-3.1983,-3.2038,-3.2061,-3.176,-3.1757,-3.1755,-3.1754,0,0,-3.1576,-3.161,-3.1636,-3.1657,-3.1691,-3.1744,-3.1825,-3.1881,-3.1918,-3.1955,-3.2022,-3.211,-3.2067,-3.2097,-3.2079,-3.2139,-3.2277,-3.2085,-3.2085,-3.212,-3.2432,-3.2466,-3.2493,-3.2252,-3.2256,-3.226,-3.2429,0,-3.1744,-3.1885,-3.1864,-3.2,-3.2063,-3.2011,-3.2081,-3.211,-3.2112,-3.2166,-3.2168,-3.223,-3.2169,-3.2187,-3.2243,-3.2248,-3.2339,-3.2236,-3.2315,-3.2318,-3.2307,-3.2522,-3.2559,-3.2718,-3.245,-3.2454,-3.2456,0,-3.1959,-3.2003,-3.2144,-3.2166,-3.2192,-3.2256,-3.2305,-3.2358,-3.2388,-3.2385,-3.2419,-3.239,-3.2472,-3.2392,-3.2504,-3.2434,-3.2465,-3.2472,-3.2478,-3.2484,-3.2396,-3.2534,-3.2768,-3.2792,-3.249,-3.2488,-3.2485,0,-3.2113,-3.2207,-3.2303,-3.2323,-3.2352,-3.2398,-3.2412,-3.2438,-3.2473,-3.2516,-3.2538,-3.2591,-3.2619,-3.2661,-3.2647,-3.259,-3.2761,-3.2681,-3.2761,-3.2762,-3.28,-3.2797,-3.3041,-3.282,-3.282,-3.2819,-3.2819,0,-3.2302,-3.2391,-3.2372,-3.2432,-3.2529,-3.2505,-3.2602,-3.261,-3.2634,-3.2694,-3.2652,-3.2709,-3.2687,-3.2743,-3.2733,-3.2827,-3.284,-3.284,-3.2836,-3.2844,-3.2844,-3.2864,-3.2853,-3.2826,-3.2824,-3.2823,-3.2822,0,-3.249,-3.2482,-3.2583,-3.2602,-3.2608,-3.2679,-3.2695,-3.2751,-3.2749,-3.2826,-3.2842,-3.284,-3.2904,-3.2894,-3.2965,-3.2957,-3.3075,-3.3057,-3.3064,-3.306,-3.3141,-3.3134,-3.3406,-3.3441,-3.3197,-3.32,-3.3202,0,-3.2612,-3.2679,-3.2704,-3.2741,-3.2758,-3.2818,-3.2853,-3.2831,-3.2869,-3.2909,-3.296,-3.3019,-3.3066,-3.317,-3.3175,-3.3229,-3.3213,-3.3305,-3.3221,-3.3226,-3.3214,-3.321,-3.3217,-3.3321,-3.3324,-3.3326,-3.3328,0,-3.2828,-3.282,-3.2872,-3.2922,-3.2964,-3.3003,-3.3037,-3.307,-3.3051,-3.3096,-3.316,-3.3196,-3.3268,-3.3328,-3.3378,-3.3393,-3.3358,-3.3355,-3.3376,-3.3384,-3.3385,-3.3386,-3.3109,-3.3348,-3.3346,-3.3345,-3.3344,-3.3343,-3.2987,-3.3043,-3.3069,-3.3128,-3.3151,-3.3184,-3.3237,-3.3241,-3.3294,-3.335,-3.3335,-3.3407,-3.3436,-3.3499,-3.352,-3.3576,-3.3543,-3.3574,-3.3582,-3.359,-3.3599,-3.3376,-3.3586,-3.3585,-3.3584,-3.3584,-3.3584,0,-3.3201,-3.3215,-3.3269,-3.3317,-3.3363,-3.3325,-3.3361,-3.3402,-3.3467,-3.3496,-3.3542,-3.3616,-3.3673,-3.3682,-3.3737,-3.378,-3.3766,-3.3796,-3.3792,-3.3796,-3.3627,-3.3602,-3.3806,-3.3806,-3.3806,-3.3806,-3.3806,-3.3806,-3.3318,-3.3411,-3.3406,-3.351,-3.3523,-3.3594,-3.3617,-3.3648,-3.367,-3.3754,-3.3801,-3.3806,-3.3827,-3.3883,-3.3934,-3.3935,-3.3957,-3.3994,-3.3989,-3.383,-3.3808,-3.3787,-3.3764,-3.3999,-3.3999,-3.4153,-3.4155,-3.4156]},{"header":{"parameterUnit":"m.s-1","parameterCategory":1,"la1":30.2991,"la2":30.254,"lo1":-89.0895,"lo2":-89.0444,"dy":0.0017,"dx":0.0017,"nx":28,"ny":28,"refTime":"2025-12-04T03:00:00:Z","depth":0,"parameterNumber":3,"parameterNumberName":"V-component_of_WINDS"},"data":[0,0,0,0,0,0,0,0,0,0,0,0,0,0,0,0,0,0,0,0,0,0,0,0,0,0,0,0,0,0,0,0,0,0,0,0,0,0,0,0,0,0,0,0,0,0,0,0,0,0,0,0,0,0,0,0,0,0,-0.9392,-0.9393,0,-0.943,-0.9431,-0.9431,-0.9454,-0.9454,-0.9454,-0.9454,-0.9494,-0.9495,-0.9496,0,0,0,0,0,0,0,0,0,0,0,0,0,-0.9339,-0.934,-0.9392,-0.9393,-0.9393,-0.943,-0.9431,-0.9431,-0.9454,-0.9454,-0.9454,-0.9455,-0.9494,-0.9495,-0.9496,0,0,0,0,0,0,0,0,0,0,0,0,0,-0.9368,-0.934,-0.9392,-0.9409,-0.9411,-0.943,-0.9431,-0.9431,-0.9454,-0.9454,-0.9454,-0.9455,-0.9493,-0.9495,-0.9496,-0.9502,0,0,-0.95,-0.9501,0,0,0,0,0,0,0,0,-0.9366,-0.937,-0.9406,-0.9408,-0.941,-0.9438,-0.9427,-0.9455,-0.9454,-0.9438,-0.9455,-0.9455,-0.9475,-0.9478,-0.9485,-0.9503,-0.9505,-0.95,-0.9501,-0.9502,-0.9502,0,0,0,0,0,0,0,-0.9364,-0.9369,-0.9407,-0.9407,-0.9409,-0.9415,-0.9419,-0.9432,-0.9455,-0.9439,-0.9441,-0.9445,-0.9476,-0.9483,-0.9486,-0.9506,-0.95,-0.9502,-0.9503,-0.9503,-0.953,-0.953,0,0,0,0,0,0,-0.936,-0.9367,-0.9406,-0.9408,-0.9388,-0.9415,-0.942,-0.9429,-0.9455,-0.9459,-0.9445,-0.9446,-0.9481,-0.9484,-0.9487,-0.9495,-0.9502,-0.9503,-0.9504,-0.953,-0.953,-0.953,0,0,0,0,0,0,-0.9358,-0.9363,-0.9405,-0.9388,-0.9394,-0.9416,-0.9425,-0.9429,-0.9437,-0.9459,-0.9464,-0.9448,-0.9481,-0.9485,-0.9498,-0.9497,-0.9504,-0.9505,-0.953,-0.953,-0.953,-0.9511,0,0,0,0,0,0,-0.9357,-0.9362,-0.9365,-0.9388,-0.9395,-0.9414,-0.9425,-0.943,-0.9439,-0.9441,-0.9463,-0.9467,-0.9482,-0.9495,-0.9499,-0.9499,-0.9506,-0.953,-0.953,-0.953,-0.9512,-0.951,-0.9509,0,0,0,0,0,-0.9355,-0.9358,-0.9365,-0.9369,-0.9398,-0.9414,-0.9418,-0.9434,-0.9439,-0.9441,-0.9456,-0.9467,-0.9496,-0.9496,-0.9501,-0.9501,-0.9531,-0.953,-0.953,-0.9512,-0.951,-0.9509,0,0,0,0,0,0,-0.9335,-0.9362,-0.9369,-0.938,-0.9395,-0.9418,-0.9422,-0.9432,-0.9445,-0.9446,-0.9466,-0.9471,-0.9481,-0.9493,-0.9492,-0.9507,-0.9515,-0.9515,-0.95,-0.9498,-0.9497,-0.9494,-0.9508,0,0,0,0,0,-0.9332,-0.9342,-0.9365,-0.9373,-0.938,-0.9399,-0.9407,-0.9418,-0.9434,-0.944,-0.9456,-0.9471,-0.9483,-0.9491,-0.9504,-0.9513,-0.9518,-0.9516,-0.9514,-0.9513,-0.9513,-0.9518,-0.9517,-0.9529,-0.9529,-0.9529,0,0,-0.9325,-0.9341,-0.9347,-0.9369,-0.9382,-0.9392,-0.9404,-0.9415,-0.9423,-0.9442,-0.9454,-0.9466,-0.9484,-0.9494,-0.95,-0.9504,-0.9511,-0.9512,-0.9511,-0.9512,-0.9517,-0.9516,-0.9515,-0.9528,-0.9528,-0.9528,0,0,-0.9319,-0.9332,-0.934,-0.9352,-0.937,-0.9383,-0.9385,-0.9407,-0.9415,-0.9428,-0.9442,-0.9452,-0.9473,-0.9485,-0.9494,-0.9491,-0.9502,-0.9495,-0.9487,-0.9492,-0.9491,-0.949,-0.9489,-0.9488,-0.9495,-0.9495,-0.9495,0,-0.9309,-0.9325,-0.9342,-0.9352,-0.9361,-0.9378,-0.9386,-0.9397,-0.9419,-0.9424,-0.9429,-0.9456,-0.9469,-0.9482,-0.9481,-0.9488,-0.949,-0.9493,-0.949,-0.9489,-0.9489,-0.9488,-0.9487,-0.9494,-0.9494,-0.9494,-0.9494,0,-0.9312,-0.9323,-0.9327,-0.9347,-0.9356,-0.9365,-0.9383,-0.939,-0.9401,-0.9413,-0.9425,-0.9442,-0.9458,-0.9462,-0.9472,-0.9476,-0.9478,-0.9486,-0.9493,-0.9486,-0.9486,-0.9485,-0.9493,-0.9493,-0.9493,-0.9494,0,0,-0.9295,-0.9324,-0.9325,-0.9334,-0.9355,-0.9364,-0.9373,-0.9388,-0.9394,-0.9409,-0.9417,-0.9434,-0.9441,-0.9451,-0.9463,-0.9467,-0.9463,-0.9474,-0.9474,-0.9471,-0.9468,-0.9462,-0.9461,-0.947,-0.947,-0.947,-0.9466,0,-0.9292,-0.9309,-0.9324,-0.9335,-0.9345,-0.9361,-0.9369,-0.9383,-0.9394,-0.9404,-0.9417,-0.9429,-0.9437,-0.9444,-0.9448,-0.9462,-0.9462,-0.9463,-0.9477,-0.9477,-0.9472,-0.9461,-0.9455,-0.9451,-0.9466,-0.9466,-0.9466,0,-0.929,-0.9303,-0.9316,-0.9335,-0.934,-0.9347,-0.9362,-0.9371,-0.9387,-0.9395,-0.9406,-0.9418,-0.9428,-0.9434,-0.9448,-0.9448,-0.9455,-0.9462,-0.9463,-0.9465,-0.9471,-0.9463,-0.945,-0.945,-0.9466,-0.9466,-0.9466,0,-0.9276,-0.9297,-0.9307,-0.9314,-0.9337,-0.9341,-0.9351,-0.9367,-0.9375,-0.9388,-0.9394,-0.9408,-0.9416,-0.9427,-0.9442,-0.9445,-0.9454,-0.9462,-0.9461,-0.9461,-0.9462,-0.9462,-0.9451,-0.9467,-0.9467,-0.9467,-0.9467,0,-0.9271,-0.9278,-0.9301,-0.9307,-0.9315,-0.9332,-0.9339,-0.935,-0.9364,-0.9372,-0.9387,-0.9395,-0.9414,-0.9424,-0.9436,-0.9446,-0.9449,-0.9456,-0.9459,-0.9455,-0.9454,-0.946,-0.946,-0.9467,-0.9467,-0.9467,-0.9467,0,-0.9257,-0.9272,-0.9284,-0.9305,-0.931,-0.9315,-0.9332,-0.9339,-0.9351,-0.9361,-0.9365,-0.9384,-0.9396,-0.9412,-0.943,-0.9438,-0.9446,-0.9451,-0.944,-0.9442,-0.944,-0.944,-0.9432,-0.9432,-0.9448,-0.9448,-0.9448,0,-0.9253,-0.9258,-0.9279,-0.9285,-0.9295,-0.9305,-0.9313,-0.933,-0.9338,-0.9355,-0.936,-0.9373,-0.9384,-0.9403,-0.9419,-0.9432,-0.9437,-0.9434,-0.944,-0.9435,-0.9437,-0.9436,-0.9437,-0.9432,-0.9432,-0.9432,-0.9432,0,-0.9243,-0.925,-0.9261,-0.9275,-0.9284,-0.9296,-0.9308,-0.9312,-0.9332,-0.934,-0.9352,-0.9361,-0.9378,-0.9391,-0.9407,-0.9417,-0.9427,-0.943,-0.943,-0.9426,-0.9419,-0.9422,-0.9436,-0.943,-0.943,-0.943,-0.943,-0.943,-0.9234,-0.9239,-0.9254,-0.9266,-0.9277,-0.9288,-0.9294,-0.9307,-0.9317,-0.9333,-0.9342,-0.9354,-0.9369,-0.939,-0.94,-0.9409,-0.9414,-0.9414,-0.9415,-0.9414,-0.9413,-0.9417,-0.9412,-0.9412,-0.9412,-0.9413,-0.9413,0,-0.9225,-0.9235,-0.9246,-0.9262,-0.9271,-0.9279,-0.9293,-0.93,-0.931,-0.9323,-0.9334,-0.9348,-0.9361,-0.9377,-0.939,-0.9395,-0.94,-0.9398,-0.9397,-0.94,-0.9409,-0.9407,-0.9393,-0.9393,-0.9393,-0.9393,-0.9393,-0.9393,-0.9221,-0.923,-0.9239,-0.9254,-0.9264,-0.9276,-0.9283,-0.9293,-0.9303,-0.9318,-0.9328,-0.9338,-0.9352,-0.9367,-0.9378,-0.9383,-0.9387,-0.9383,-0.9389,-0.9397,-0.9399,-0.9401,-0.9399,-0.9384,-0.9384,-0.9379,-0.9379,-0.9379]}]]